Weather History for Idaho Falls, ID

Change the Weather History Date:

Friday, February 7, 2014

  Actual Average Record
Temperature  
Mean Temperature 19 °F 22 °F  
Max Temperature 26 °F 31 °F 55 °F (1963)
Min Temperature 11 °F 13 °F -22 °F (1989)
Degree Days  
Heating Degree Days 46 43  
Month to date heating degree days 373 305  
Since 1 July heating degree days 4909 4968  
Cooling Degree Days 0 0  
Month to date cooling degree days 0 0  
Year to date cooling degree days 0 0  
Moisture  
Dew Point 14 °F    
Average Humidity 81    
Maximum Humidity 92    
Minimum Humidity 70    
Precipitation  
Precipitation 0.08 in 0.02 in 0.29 in (1951)
Month to date precipitation 0.08 0.14  
Year to date precipitation 0.59 0.83  
Sea Level Pressure  
Sea Level Pressure 29.87 in    
Wind  
Wind Speed 5 mph (NNW)    
Max Wind Speed 13 mph    
Max Gust Speed 16 mph    
Visibility 5 miles    
Events Fog , Snow    
T = Trace of Precipitation, MM = Missing Value Source: NWS Daily Summary

Daily Weather History Graph

Daily Weather History Graph

Search for Another Location

Airport:

Trip Planner

Search our weather history database for the weather conditions in past years. The results will help you decide how hot, cold, wet, or windy it might be!

Date:

Astronomy

Feb. 07, 2014 Rise Set
Actual Time 7:37 AM MST 5:48 PM MST
Civil Twilight 7:07 AM MST 6:18 PM MST
Nautical Twilight 6:33 AM MST 6:51 PM MST
Astronomical Twilight 6:00 AM MST 7:25 PM MST
Moon 12:00 PM MST (2/7) 1:58 AM MST (2/7)
Length of Visible Light 11h 10m
Length of Day
10h 10m
First Quarter, 60% of the Moon is Illuminated
Feb 7
First Quarter
Feb 14
Full
Feb 22
Last Quarter
Mar 1
New
Mar 8
First Quarter

Hourly Weather History & Observations

Time (MST) Temp. Windchill Dew Point Humidity Pressure Visibility Wind Dir Wind Speed Gust Speed Precip Events Conditions
12:53 AM 10.9 °F 0.2 °F 5.0 °F 77% 30.02 in 10.0 mi North 6.9 mph - N/A   Overcast
1:53 AM 10.9 °F -0.8 °F 6.1 °F 81% 29.99 in 8.0 mi North 8.1 mph - 0.00 in Snow Light Snow
2:53 AM 10.9 °F -1.8 °F 7.0 °F 84% 29.96 in 9.0 mi North 9.2 mph - 0.00 in   Overcast
3:53 AM 12.0 °F -0.4 °F 7.0 °F 80% 29.93 in 9.0 mi North 9.2 mph - 0.00 in Snow Light Snow
4:51 AM 12.2 °F 1.7 °F 8.6 °F 85% 29.70 in 2.5 mi North 6.9 mph - 0.00 in Snow Light Snow
4:53 AM 12.0 °F 0.5 °F 8.1 °F 84% 29.91 in 2.0 mi North 8.1 mph - 0.00 in Snow Light Snow
5:00 AM 12.0 °F 2.7 °F 8.1 °F 84% 29.71 in 1.0 mi North 5.8 mph - 0.00 in Snow Light Snow
5:08 AM 12.0 °F -0.4 °F 8.1 °F 84% 29.70 in 1.0 mi NNW 9.2 mph - 0.00 in Snow Light Snow
5:32 AM 12.9 °F -0.9 °F 9.0 °F 84% 29.72 in 1.5 mi NW 11.5 mph - 0.01 in Snow Light Snow
5:40 AM 12.9 °F -0.9 °F 9.0 °F 84% 29.72 in 0.8 mi NW 11.5 mph - 0.01 in Snow Light Snow
5:53 AM 12.9 °F 0.7 °F 9.0 °F 84% 29.92 in 1.0 mi NW 9.2 mph - 0.01 in Snow Light Snow
6:14 AM 12.9 °F 5.2 °F 9.0 °F 84% 29.72 in 1.2 mi NW 4.6 mph - 0.01 in Snow Light Snow
6:34 AM 12.9 °F 6.9 °F 10.0 °F 88% 29.72 in 3.0 mi Variable 3.5 mph - 0.01 in Snow Light Snow
6:53 AM 12.9 °F 5.2 °F 9.0 °F 84% 29.94 in 10.0 mi WSW 4.6 mph - 0.01 in   Overcast
7:53 AM 12.9 °F 3.8 °F 10.0 °F 88% 29.92 in 10.0 mi SSW 5.8 mph - N/A   Overcast
8:53 AM 14.0 °F 3.9 °F 10.0 °F 84% 29.94 in 10.0 mi NW 6.9 mph - N/A   Overcast
9:26 AM 15.1 °F 6.4 °F 10.0 °F 80% 29.77 in 10.0 mi WNW 5.8 mph - N/A   Overcast
9:53 AM 16.0 °F 10.4 °F 10.0 °F 77% 29.96 in 10.0 mi NNE 3.5 mph - N/A   Overcast
10:53 AM 17.1 °F 11.7 °F 12.0 °F 81% 29.98 in 10.0 mi SE 3.5 mph - N/A   Overcast
11:53 AM 19.0 °F 10.0 °F 15.1 °F 85% 29.96 in 10.0 mi SSW 6.9 mph - N/A   Overcast
12:53 PM 19.9 °F 9.3 °F 17.1 °F 89% 29.95 in 10.0 mi SSW 9.2 mph - N/A   Overcast
1:53 PM 21.0 °F - 19.0 °F 92% 29.95 in 10.0 mi Calm Calm - N/A   Overcast
2:53 PM 23.0 °F - 19.9 °F 88% 29.94 in 10.0 mi Calm Calm - N/A   Overcast
3:53 PM 25.0 °F - 21.0 °F 85% 29.94 in 10.0 mi Calm Calm - N/A   Overcast
4:47 PM 23.0 °F 18.4 °F 19.4 °F 86% 29.82 in 2.0 mi North 3.5 mph - N/A   Overcast
4:53 PM 24.1 °F 19.7 °F 19.9 °F 84% 29.98 in 2.0 mi NE 3.5 mph - 0.00 in Snow Light Snow
5:31 PM 23.0 °F - 19.9 °F 88% 29.82 in 7.0 mi Calm Calm - 0.00 in   Overcast
5:53 PM 23.0 °F 17.0 °F 19.9 °F 88% 29.97 in 9.0 mi SSW 4.6 mph - 0.00 in   Overcast
6:53 PM 26.1 °F 18.4 °F 23.0 °F 88% 29.97 in 4.0 mi SSW 6.9 mph - 0.00 in Snow Light Snow
7:41 PM 24.1 °F - 21.9 °F 91% 29.84 in 3.0 mi Calm Calm - 0.01 in Snow Light Snow
7:53 PM 23.0 °F 17.0 °F 19.9 °F 88% 29.99 in 2.0 mi NNW 4.6 mph - 0.01 in Snow Light Snow
8:14 PM 21.0 °F 14.6 °F 19.0 °F 92% 29.83 in 1.5 mi North 4.6 mph - 0.00 in Snow Light Snow
8:39 PM 21.0 °F 12.4 °F 19.0 °F 92% 29.84 in 2.5 mi NNW 6.9 mph - 0.01 in Snow Light Snow
8:53 PM 19.9 °F 11.1 °F 17.1 °F 89% 30.00 in 2.0 mi North 6.9 mph - 0.01 in Snow Light Snow
9:00 PM 19.9 °F 12.1 °F 17.1 °F 89% 29.83 in 1.5 mi North 5.8 mph - 0.00 in Snow Light Snow
9:27 PM 19.0 °F 12.3 °F 17.1 °F 92% 29.82 in 1.0 mi North 4.6 mph - 0.01 in Snow Light Snow
9:36 PM 19.0 °F 12.3 °F 17.1 °F 92% 29.82 in 0.5 mi North 4.6 mph - 0.02 in Fog , Snow Snow
9:51 PM 19.4 °F 12.8 °F 17.6 °F 93% 29.81 in 1.0 mi North 4.6 mph - 0.03 in Snow Light Snow
9:53 PM 19.0 °F 12.3 °F 17.1 °F 92% 29.96 in 1.2 mi NNE 4.6 mph - 0.03 in Snow Light Snow
9:59 PM 19.0 °F 12.3 °F 17.1 °F 92% 29.81 in 2.0 mi North 4.6 mph - 0.00 in Snow Light Snow
10:20 PM 19.0 °F 12.3 °F 17.1 °F 92% 29.80 in 1.8 mi North 4.6 mph - 0.00 in Snow Light Snow
10:53 PM 19.0 °F 13.9 °F 17.1 °F 92% 29.94 in 1.2 mi North 3.5 mph - 0.01 in Snow Light Snow
11:02 PM 19.9 °F 12.1 °F 17.1 °F 89% 29.78 in 2.0 mi NNE 5.8 mph - 0.00 in Snow Light Snow
11:21 PM 19.9 °F 12.1 °F 17.1 °F 89% 29.78 in 3.0 mi North 5.8 mph - 0.00 in Snow Light Snow
11:31 PM 19.9 °F 11.1 °F 17.1 °F 89% 29.77 in 4.0 mi NNE 6.9 mph - 0.00 in Snow Light Snow
11:53 PM 19.9 °F 12.1 °F 17.1 °F 89% 29.89 in 2.5 mi North 5.8 mph - 0.00 in Snow Light Snow